This is the latest recevied weather packets stored in our database for station/object W6MAF. If no packets are shown the sender has not sent any weather packets the latest 10 day(s).
| Time | Temp. | Humidity | Pressure | Rain* | Wind** | Luminosity | Snow |
|---|---|---|---|---|---|---|---|
| 1788139681 | 27.22° C | 6% | - | 0 mm | 7.6 m/s, 195° | - | - |
| 1788139383 | 27.22° C | 6% | - | 0 mm | 7.15 m/s, 203° | - | - |
| 1788139086 | 27.22° C | 6% | - | 0 mm | 5.36 m/s, 176° | - | - |
| 1788138788 | 27.22° C | 7% | - | 0 mm | 6.26 m/s, 204° | - | - |
| 1788138491 | 27.78° C | 6% | - | 0 mm | 5.81 m/s, 217° | - | - |
| 1788138189 | 27.78° C | 6% | - | 0 mm | 8.05 m/s, 212° | - | - |
| 1788137891 | 27.78° C | 6% | - | 0 mm | 5.81 m/s, 201° | - | - |
| 1788137594 | 27.78° C | 7% | - | 0 mm | 6.71 m/s, 190° | - | - |
| 1788137296 | 27.78° C | 7% | - | 0 mm | 5.36 m/s, 210° | - | - |
| 1788137055 | 27.78° C | 8% | - | 0 mm | 6.71 m/s, 198° | - | - |
| 1788136998 | 27.78° C | 8% | - | 0 mm | 6.71 m/s, 198° | - | - |
| 1788136701 | 27.78° C | 8% | - | 0 mm | 6.71 m/s, 176° | - | - |
| 1788136400 | 28.33° C | 7% | - | 0 mm | 6.71 m/s, 194° | - | - |
| 1788136102 | 27.78° C | 7% | - | 0 mm | 8.49 m/s, 180° | - | - |
| 1788135804 | 28.33° C | 7% | - | 0 mm | 7.6 m/s, 210° | - | - |
| 1788135506 | 28.33° C | 7% | - | 0 mm | 8.49 m/s, 169° | - | - |
| 1788135209 | 27.78° C | 7% | - | 0 mm | 8.05 m/s, 190° | - | - |
| 1788134911 | 28.33° C | 7% | - | 0 mm | 8.94 m/s, 181° | - | - |
| 1788134610 | 28.33° C | 7% | - | 0 mm | 9.83 m/s, 190° | - | - |
| 1788134312 | 28.33° C | 7% | - | 0 mm | 9.39 m/s, 197° | - | - |
| 1788134015 | 28.33° C | 7% | - | 0 mm | 9.39 m/s, 201° | - | - |
| 1788133419 | 28.33° C | 6% | - | 0 mm | 8.49 m/s, 203° | - | - |
| 1788133121 | 28.89° C | 6% | - | 0 mm | 9.83 m/s, 195° | - | - |
| 1788132820 | 28.89° C | 6% | - | 0 mm | 7.15 m/s, 169° | - | - |
| 1788132523 | 28.89° C | 5% | - | 0 mm | 9.83 m/s, 188° | - | - |
* Rain latest hour (hover to see other rain measurements)
** Current wind speed in m/s (hover to see current wind gust speed)